Regional Weather Roundup
Issued by NWS Wilmington, NC

Current Version | Previous Version | Graphics & Text | Print | Product List | Glossary Off
Versions: 1 2 3 4 5 6 7 8 9 10 11 12 13 14 15 16 17 18 19 20 21 22 23 24 25 26 27

000
ASUS42 KILM 220513
RWRILM
RWRILM
REGIONAL HOURLY WEATHER ROUNDUP
NATIONAL WEATHER SERVICE WILMINGTON NC
100 AM EDT SUN MAY 22 2022

NOTE: "FAIR" INDICATES FEW OR NO CLOUDS BELOW 12,000 FEET WITH NO
SIGNIFICANT WEATHER AND/OR OBSTRUCTIONS TO VISIBILITY.

...............WFO WILMINGTON COUNTY WARNING AREA...............

......COASTAL NC AND SC COUNTIES......

CITY           SKY/WX    TMP DP  RH WIND       PRES   REMARKS
WILMINGTON     MOCLDY    77  72  84 SW8       30.20F
N MYRTLE BEACH MOCLDY    75  69  81 S14       30.21R
MYRTLE BEACH   MOCLDY    75  68  78 S8        30.22R

......INLAND NC AND SC COUNTIES.......

CITY           SKY/WX    TMP DP  RH WIND       PRES   REMARKS
LUMBERTON      NOT AVBL
ELIZABETHTOWN  MOCLDY    75  69  82 S7        30.20R
WHITEVILLE     MOCLDY    75  68  78 S7        30.21R
FLORENCE       MOCLDY    73  67  81 SW5       30.19R
DARLINGTON     MOCLDY    71  69  93 SW8       30.19S
KINGSTREE      FAIR      70  68  94 S3        30.20R
HARTSVILLE     FAIR      70  68  94 CALM      30.20R
BENNETTSVILLE  FAIR      70  70 100 CALM      30.19S
CONWAY         FAIR      73  66  78 S8        30.20S
GEORGETOWN     FAIR      72  68  88 SW9       30.22S
MARION         FAIR      70  70 100 W3        30.20R

....................REST OF NORTH CAROLINA......................

.........EASTERN NC.........

CITY           SKY/WX    TMP DP  RH WIND       PRES   REMARKS
CAPE HATTERAS  MOCLDY    76  73  91 SW8       30.20F
JACKSONVILLE   NOT AVBL
MOREHEAD CITY  MOCLDY    77  74  90 S13       30.20F
KENANSVILLE    MOCLDY    75  70  83 MISG      30.20R
NEW BERN       NOT AVBL
ELIZABETH CITY MOCLDY    75  67  76 SW12      30.15F

.........CENTRAL NC.........

CITY           SKY/WX    TMP DP  RH WIND       PRES   REMARKS
RALEIGH DURHAM MOCLDY    71  68  90 SE3       30.18S
ROCKY MOUNT    MOCLDY    71  67  87 CALM      30.18S
ROANOKE RAPIDS NOT AVBL
FAYETTEVILLE     N/A     72  68  87 MISG      30.18R
HOFFMAN        MOCLDY    70  69  99 SW5       30.16S

.........WESTERN NC.........

CITY           SKY/WX    TMP DP  RH WIND       PRES   REMARKS
CHARLOTTE      MOCLDY    72  68  87 S3        30.16S
GREENSBORO     CLOUDY    68  64  87 S8        30.16F
HICKORY        NOT AVBL
BOONE          NOT AVBL
ASHEVILLE      NOT AVBL

.....................REST OF SOUTH CAROLINA.....................

.........EASTERN SC.........

CITY           SKY/WX    TMP DP  RH WIND       PRES   REMARKS
CHARLESTON     CLOUDY    75  69  81 S10       30.21S
BEAUFORT MCAS  MOCLDY    77  68  73 S8G21     30.21R
HILTON HEAD    MOCLDY    75  68  78 S10       30.23F

.........CENTRAL SC.........

CITY           SKY/WX    TMP DP  RH WIND       PRES   REMARKS
COLUMBIA       MOCLDY    72  69  90 SW6       30.18R
ORANGEBURG     MOCLDY    69  69 100 CALM      30.20R
SUMTER SHAW    MOCLDY    70  67  92 S5        30.18S

.........WESTERN SC.........

CITY           SKY/WX    TMP DP  RH WIND       PRES   REMARKS
GREENVILLE     NOT AVBL
ROCK HILL      MOCLDY    71  67  87 SW7       30.17S
ANDERSON       MOCLDY    73  68  84 SW5       30.18R
CLEMSON        NOT AVBL
GREENWOOD      CLOUDY    71  68  90 S7        30.19S


...................COASTAL AND OFFSHORE REPORTS..................

................LOCAL PIERS AND NC RESERVE................


STATION/POSITION TIME  SKY/WX   TEMP    WIND        PRES    VSBY
                                AIR SEA DIR/SP/G
                 (UTC)          (F)     (DEG/KT/KT) (MB)    (MI)
JOHNY MRCER PIER 0430            76 72  200/ 10/ 11 1022.5S
NC RESRV MASNBRO NOT AVBL
OCEAN CREST PIER NOT AVBL
SPRINGMAID  PIER 0430            75     220/  9/ 13 1023.8S


................COASTAL AND OFFSHORE BUOYS................


STATION/POSITION TIME  SKY/WX   TEMP    WIND        PRES    VSBY
                                AIR SEA DIR/SP/G
                 (UTC)          (F)     (DEG/KT/KT) (MB)    (MI)
DIMNDSHOAL 41025 0450               74  230/ 12/ 14 1022.5F
CAPE LOOKOUT     0400            76     200/  9/ 11 1024.0S
ONSLOW BAY 41036 NOT AVBL
ONSLOW BAY 41064 0408            75 74  200/  8/ 12 1023.8R
ONSLOW BAY 41159 0456               74                N/A
WVE H/P(F/S)=  3/ 8

MASNBO INL 41110 0426               74                N/A
WVE H/P(F/S)=  2/ 9

WILM HARBR 41108 0430               74                N/A
WVE H/P(F/S)=  3/ 5

27SE WRITB 41037 0408            76 74  180/  8/ 14 1022.6
FRYING PAN 41013 0450            76 75  230/ 12/ 16 1023.3F
WVE H/P(F/S)=  3/ 6 SWL H/P/D(F/S/D)=  2/130/ 9

SUNST NRSH 41024 0408            76 77  210/ 12/ 16 1022.7F
CAPRS NRSH 41029 0408            76 76  190/ 21/ 29 1022.6F
EDISTO     41004 0450            75 77  200/ 23/ 27 1023.1F
WVE H/P(F/S)=  4/ 4 SWL H/P/D(F/S/D)=  2/120/ 9



..........OFFSHORE BUOYS BEYOND 100 NM OFFSHORE...........
.....IN A TRIANGLE---HAT TO BERMUDA TO BAHAMAS TO HAT.....


STATION/POSITION TIME  SKY/WX   TEMP    WIND        PRES    VSBY
                                AIR SEA DIR/SP/G
                 (UTC)          (F)     (DEG/KT/KT) (MB)    (MI)
150E HAT   41001 0450            75 74  240/ 12/ 16 1024.7R
WVE H/P(F/S)=  4/ 6 SWL H/P/D(F/S/D)=  2/260/ 6

W BERMUDA  41048 0450            75 76              1026.2F
WVE H/P(F/S)=  3/ 9 SWL H/P/D(F/S/D)=  3/120/ 9

ATLANTIC S 41049 0450            77 79   80/  4/  6 1023.2F
WVE H/P(F/S)=  3/ 8 SWL H/P/D(F/S/D)=  3/130/ 8

E BAHAMAS  41046 0450            79 80   70/ 10/ 14 1023.5F
WVE H/P(F/S)=  4/ 9 SWL H/P/D(F/S/D)=  3/100/ 9

NE BAHAMAS 41047 0450            78 79  110/  8/ 12 1023.5F
WVE H/P(F/S)=  3/ 8 SWL H/P/D(F/S/D)=  3/110/ 8

120E CANVRL41010 0450            79 80  130/ 10/ 12 1023.7F
WVE H/P(F/S)=  3/ 4 SWL H/P/D(F/S/D)=  2/130/ 8


END



USA.gov is the U.S. government's official web portal to all federal, state and local government web resources and services.